Location: Cactus School
(34.5700°N, 118.0931°W)
Time: 00:39:05
(UTC-08:00)

Amateur Radio Satellites - All Passes

Search period start: 19 November 2017 00:09
Search period end: 20 November 2017 00:09
Location: Cactus School, 34.5700°N, 118.0931°W

Satellite Date Start Highest point End Downlink Frequencies (MHz)
Time Altitude Azimuth
QB50P2 19 Nov 00:22:18 00:26:05 34° 288° (WNW) 00:29:52 145.880/145.840
VELOX 1 19 Nov 00:26:12 00:30:18 38° 261° (W) 00:34:28 145.980
UKube-1 19 Nov 00:31:45 00:35:27 29° 71° (ENE) 00:39:11 .
BUGSAT 1 19 Nov 00:43:13 00:47:12 58° 101° (E) 00:51:07 437.445
MOZHAYETS 4 19 Nov 01:13:42 01:16:03 14° 66° (ENE) 01:18:24
DUCHIFAT 1 19 Nov 01:18:00 01:19:37 12° 294° (WNW) 01:21:13 145.980
DX 1 19 Nov 01:19:41 01:23:49 43° 260° (W) 01:28:00 434.975-435.025
50 SAT 19 Nov 01:30:25 01:32:43 18° 264° (W) 01:35:02 437.505
Oscar 19 19 Nov 01:36:57 01:42:06 78° 285° (WNW) 01:47:15 437.125/150
PCSat 19 Nov 01:37:42 01:41:50 22° 307° (NW) 01:45:58 145.827
Gurwin Techsat 1B 19 Nov 01:42:01 01:47:22 82° 103° (ESE) 01:52:41 435.225
RS-15 19 Nov 01:44:38 01:53:15 22° 32° (NNE) 02:01:31 29.354- 29.394
BEESAT 19 Nov 02:04:18 02:08:46 41° 72° (ENE) 02:13:15 436.000
UKube-1 19 Nov 02:08:17 02:11:26 20° 264° (W) 02:14:36 .
ITUPSAT 1 19 Nov 02:12:07 02:16:44 49° 73° (ENE) 02:21:20 437.325
M-CUBED/EXP-1 PRIME 19 Nov 02:14:14 02:18:35 44° 104° (ESE) 02:23:02 437.505
BEESAT 3 19 Nov 02:15:02 02:18:36 33° 113° (ESE) 02:22:13 437.485
MOZHAYETS 4 19 Nov 02:48:21 02:52:45 48° 260° (W) 02:57:10
CUBESAT XI-V 19 Nov 02:53:28 02:57:40 37° 73° (ENE) 03:01:55 437.345
AO-7 19 Nov 03:11:35 03:19:51 62° 104° (ESE) 03:28:05 .
ISS 19 Nov 03:18:56 03:20:57 15° 30° (NNE) 03:22:57 437.550
BEESAT 2 19 Nov 03:20:11 03:24:02 50° 115° (ESE) 03:27:57 435.950
KKS-1 19 Nov 03:22:40 03:25:38 18° 67° (ENE) 03:28:35 437.445
ITAMSAT 1 19 Nov 03:24:02 03:29:11 60° 101° (ESE) 03:34:17 435.822/435.867
Gurwin Techsat 1B 19 Nov 03:25:07 03:26:33 11° 298° (WNW) 03:27:58 435.225
BEESAT 19 Nov 03:43:37 03:46:39 17° 266° (W) 03:49:42 436.000
M-CUBED/EXP-1 PRIME 19 Nov 03:49:40 03:52:35 17° 297° (WNW) 03:55:34 437.505
ITUPSAT 1 19 Nov 03:52:17 03:54:45 14° 267° (W) 03:57:15 437.325
BEESAT 3 19 Nov 03:53:25 03:56:12 18° 309° (NW) 03:58:59 437.485
STARS 19 Nov 03:54:18 03:56:48 15° 66° (ENE) 03:59:18 437.465
RS-15 19 Nov 03:56:30 04:08:19 72° 58° (ENE) 04:19:26 29.354- 29.394
nSIGHT-1 19 Nov 04:18:06 04:21:16 67° 42° (NE) 04:24:25 .
AO-85 19 Nov 04:31:13 04:35:02 65° 300° (WNW) 04:38:59 145.980
CUBESAT XI-V 19 Nov 04:32:10 04:35:08 17° 266° (W) 04:38:07 437.345
ISS 19 Nov 04:54:28 04:57:40 56° 226° (SW) 05:00:51 437.550
KKS-1 19 Nov 04:57:44 05:01:51 36° 262° (W) 05:05:59 437.445
YUBILEINY 19 Nov 04:57:50 05:06:03 48° 89° (E) 05:14:21 435.215
BEESAT 2 19 Nov 05:00:02 05:02:02 13° 311° (NW) 05:04:03 435.950
DOVE 4 19 Nov 05:00:41 05:05:55 82° 282° (WNW) 05:10:50 437.250
ITAMSAT 1 19 Nov 05:05:18 05:08:04 15° 296° (WNW) 05:10:50 435.822/435.867
AO-7 19 Nov 05:05:22 05:11:59 27° 301° (WNW) 05:18:37 .
KAITUO 1B 19 Nov 05:05:33 05:06:43 11° 93° (E) 05:07:53 145.475/437.950
XW-2D 19 Nov 05:12:43 05:15:42 22° 96° (E) 05:18:41 145.860 - 145.880
XW-2B 19 Nov 05:27:05 05:30:30 31° 97° (E) 05:33:56 145.730 - 145.750
STARS 19 Nov 05:28:31 05:32:44 42° 261° (W) 05:36:57 437.465
HO-68 19 Nov 05:41:36 05:46:21 19° 93° (E) 05:51:03 435.675
LilacSat-2 19 Nov 05:51:15 05:55:04 79° 100° (E) 05:58:55 437.200
NUDT-PHONESAT 19 Nov 05:52:08 05:55:42 46° 99° (E) 05:59:17 437.300
XW-2C 19 Nov 05:52:12 05:56:01 75° 102° (ESE) 05:59:49 145.795 - 145.815
XW-2F 19 Nov 06:05:08 06:08:55 78° 282° (WNW) 06:12:43 145.980 - 146.000
STRAND 1 19 Nov 06:06:06 06:10:55 42° 72° (ENE) 06:15:46 437.568
SO-50 19 Nov 06:08:35 06:11:57 19° 50° (NE) 06:15:21 436.795
RS-15 19 Nov 06:10:34 06:19:30 27° 258° (WSW) 06:28:09 29.354- 29.394
CUTE-I 19 Nov 06:18:36 06:24:01 87° 281° (W) 06:29:21 437.470
FO-29 19 Nov 06:25:27 06:29:55 20° 60° (ENE) 06:34:42 435.910
KAITUO 1B 19 Nov 06:37:19 06:40:48 37° 286° (WNW) 06:44:17 145.475/437.950
UWE-3 19 Nov 06:39:23 06:41:42 15° 94° (E) 06:44:00 435.000/436.395/437.385
CUTE 1.7 + AOD 2 19 Nov 06:39:55 06:44:07 55° 100° (E) 06:48:18 437.475
XW-2D 19 Nov 06:46:54 06:49:42 20° 289° (WNW) 06:52:31 145.860 - 145.880
YUBILEINY 19 Nov 06:55:28 07:03:00 32° 286° (WNW) 07:10:40 435.215
XW-2B 19 Nov 07:02:20 07:04:22 14° 291° (WNW) 07:06:22 145.730 - 145.750
CUBEBUG 2 19 Nov 07:12:35 07:16:45 76° 102° (ESE) 07:20:52 437.445
SEEDS 19 Nov 07:14:50 07:19:06 88° 108° (ESE) 07:23:21 437.485
AO-73 19 Nov 07:26:24 07:29:46 24° 96° (E) 07:33:07 145.935
HO-68 19 Nov 07:27:24 07:34:32 69° 288° (WNW) 07:41:37 435.675
AAUSAT CUBESAT 2 19 Nov 07:28:39 07:32:44 50° 99° (E) 07:36:47 437.432
Oscar 11 19 Nov 07:45:15 07:48:56 27° 96° (E) 07:52:35 .
STRAND 1 19 Nov 07:46:38 07:50:13 19° 266° (W) 07:53:49 437.568
SO-50 19 Nov 07:48:09 07:52:35 43° 245° (WSW) 07:57:03 436.795
XW-2A 19 Nov 07:49:24 07:52:43 61° 283° (WNW) 07:56:02 145.665 - 145.685
FO-29 19 Nov 08:07:48 08:14:03 68° 259° (W) 08:21:12 435.910
ZACube-1 19 Nov 08:09:27 08:13:36 83° 283° (WNW) 08:17:46 437.345
UWE-3 19 Nov 08:14:29 08:18:14 34° 287° (WNW) 08:21:58 435.000/436.395/437.385
CUTE 1.7 + AOD 2 19 Nov 08:18:25 08:19:24 11° 294° (WNW) 08:20:23 437.475
DELFI C3 19 Nov 08:22:07 08:23:41 12° 93° (E) 08:25:14 145.870
UNISAT 6 19 Nov 08:42:37 08:47:08 57° 75° (ENE) 08:51:34 437.425
PCSat 19 Nov 08:45:09 08:49:02 19° 52° (NE) 08:52:52 145.827
TIGRISAT 19 Nov 08:47:33 08:52:06 59° 75° (ENE) 08:56:33 435.000
PRISM 19 Nov 08:47:51 08:50:50 20° 69° (ENE) 08:53:51 437.425
AO-73 19 Nov 09:02:40 09:05:50 22° 290° (WNW) 09:09:02 145.935
AAUSAT CUBESAT 2 19 Nov 09:06:22 09:07:41 11° 294° (WNW) 09:09:00 437.432
FALCONSAT 3 19 Nov 09:08:18 09:11:01 20° 151° (SSE) 09:13:45 435.103
HO-68 19 Nov 09:19:32 09:20:55 11° 306° (NW) 09:22:18 435.675
Oscar 11 19 Nov 09:21:35 09:24:52 21° 290° (WNW) 09:28:09 .
Max Valier Satellite 19 Nov 09:52:55 09:56:31 58° 284° (WNW) 10:00:08 145.860
DELFI C3 19 Nov 09:54:49 09:58:33 39° 286° (WNW) 10:02:15 145.870
EO-88 19 Nov 09:56:14 09:59:52 80° 285° (WNW) 10:03:31 145.990 - 145.960
AIST 2D 19 Nov 10:12:27 10:15:49 54° 76° (ENE) 10:19:12 435.315
ESTCUBE 1 19 Nov 10:15:01 10:17:14 13° 93° (E) 10:19:26 437.505/2401.250
PRISM 19 Nov 10:22:26 10:25:54 26° 263° (W) 10:29:24 437.425
UNISAT 6 19 Nov 10:22:45 10:24:04 11° 268° (W) 10:25:23 437.425
PCSat 19 Nov 10:27:27 10:32:43 54° 248° (WSW) 10:37:57 145.827
TIGRISAT 19 Nov 10:28:00 10:29:02 11° 268° (W) 10:30:04 435.000
LO-87 19 Nov 10:28:01 10:30:54 23° 96° (E) 10:33:45 145.935 - 145.965
DUCHIFAT 1 19 Nov 10:29:02 10:32:17 22° 70° (ENE) 10:35:31 145.980
EO-79 19 Nov 10:33:05 10:36:53 32° 72° (ENE) 10:40:40 145.935-145.965
NANOSAT C BR1 19 Nov 10:37:47 10:41:33 32° 72° (ENE) 10:45:19 145.865
FALCONSAT 3 19 Nov 10:46:06 10:49:46 67° 165° (SSE) 10:53:27 435.103
POLYITAN 1 19 Nov 10:47:28 10:51:34 48° 74° (ENE) 10:55:39 437.675
QB50P2 19 Nov 11:10:25 11:14:40 76° 258° (WSW) 11:18:55 145.880/145.840
Oscar 19 19 Nov 11:15:15 11:16:40 11° 62° (ENE) 11:18:06 437.125/150
BUGSAT 1 19 Nov 11:29:28 11:32:56 25° 71° (ENE) 11:36:24 437.445
BEESAT 2 19 Nov 11:42:40 11:44:09 12° 48° (NE) 11:45:37 435.950
ESTCUBE 1 19 Nov 11:49:53 11:54:12 46° 287° (WNW) 11:58:32 437.505/2401.250
SPROUT 19 Nov 11:56:11 12:00:14 43° 99° (E) 12:04:16 437.525
LO-87 19 Nov 12:01:55 12:04:04 15° 290° (WNW) 12:06:12 145.935 - 145.965
DUCHIFAT 1 19 Nov 12:04:16 12:07:46 25° 264° (W) 12:11:16 145.980
EO-79 19 Nov 12:09:53 12:12:39 17° 266° (W) 12:15:26 145.935-145.965
BEESAT 3 19 Nov 12:11:38 12:15:35 88° 62° (ENE) 12:19:26 437.485
O/OREOS (USA 219) 19 Nov 12:12:50 12:15:07 14° 99° (E) 12:17:23 437.305
NANOSAT C BR1 19 Nov 12:14:31 12:17:16 17° 266° (W) 12:20:02 145.865
VELOX 1 19 Nov 12:19:11 12:23:31 50° 100° (E) 12:27:49 145.980
AO-7 19 Nov 12:21:21 12:23:30 11° 50° (NE) 12:25:39 .
FALCONSAT 3 19 Nov 12:25:12 12:28:54 76° 1° (N) 12:32:36 435.103
POLYITAN 1 19 Nov 12:26:17 12:27:32 11° 268° (W) 12:28:47 437.675
Oscar 19 19 Nov 12:50:11 12:55:17 76° 258° (WSW) 13:00:25 437.125/150
50 SAT 19 Nov 12:50:33 12:53:05 21° 97° (E) 12:55:36 437.505
M-CUBED/EXP-1 PRIME 19 Nov 12:57:29 13:00:19 24° 65° (ENE) 13:03:19 437.505
Gurwin Techsat 1B 19 Nov 12:59:29 13:04:47 89° 256° (WSW) 13:10:09 435.225
AO-85 19 Nov 13:04:36 13:09:04 39° 57° (ENE) 13:13:50 145.980
BUGSAT 1 19 Nov 13:04:58 13:08:11 21° 264° (W) 13:11:25 437.445
DX 1 19 Nov 13:11:05 13:15:13 40° 99° (E) 13:19:18 434.975-435.025
BEESAT 2 19 Nov 13:18:17 13:22:14 58° 244° (WSW) 13:26:06 435.950
SPROUT 19 Nov 13:33:42 13:35:42 13° 293° (WNW) 13:37:41 437.525
O/OREOS (USA 219) 19 Nov 13:49:38 13:54:02 46° 293° (WNW) 13:58:29 437.305
UKube-1 19 Nov 13:57:09 14:01:29 87° 99° (E) 14:05:48 .
VELOX 1 19 Nov 13:57:27 13:59:28 13° 294° (WNW) 14:01:29 145.980
FALCONSAT 3 19 Nov 14:04:20 14:08:01 68° 195° (SSW) 14:11:41 435.103
AO-7 19 Nov 14:06:29 14:14:35 62° 68° (ENE) 14:22:44 .
BEESAT 19 Nov 14:09:27 14:11:46 13° 93° (E) 14:14:05 436.000
ITUPSAT 1 19 Nov 14:17:14 14:20:13 16° 94° (E) 14:23:11 437.325
50 SAT 19 Nov 14:23:15 14:24:57 14° 290° (WNW) 14:26:38 437.505
M-CUBED/EXP-1 PRIME 19 Nov 14:32:36 14:34:44 15° 262° (W) 14:36:57 437.505
ITAMSAT 1 19 Nov 14:38:19 14:43:29 65° 74° (ENE) 14:48:40 435.822/435.867
AO-85 19 Nov 14:45:35 14:49:17 22° 249° (WSW) 14:53:09 145.980
MOZHAYETS 4 19 Nov 14:46:32 14:50:58 49° 100° (E) 14:55:23
DX 1 19 Nov 14:48:26 14:51:00 15° 293° (WNW) 14:53:35 434.975-435.025
NO-84 19 Nov 14:54:26 14:57:58 73° 131° (SE) 15:01:52 435.350 FM
CUBESAT XI-V 19 Nov 14:55:08 14:57:04 12° 92° (E) 14:58:59 437.345
YUBILEINY 19 Nov 15:13:35 15:19:33 19° 68° (ENE) 15:25:27 435.215
JUGNU 19 Nov 15:19:52 15:23:16 16° 171° (S) 15:26:41 437.505
FALCONSAT 3 19 Nov 15:44:02 15:46:47 20° 209° (SSW) 15:49:32 435.103
BEESAT 19 Nov 15:45:10 15:49:46 50° 287° (WNW) 15:54:20 436.000
ITUPSAT 1 19 Nov 15:53:42 15:58:10 42° 288° (WNW) 16:02:37 437.325
CUTE-I 19 Nov 16:00:49 16:02:48 12° 62° (ENE) 16:04:48 437.470
AO-7 19 Nov 16:01:18 16:07:43 25° 264° (W) 16:14:12 .
DOVE 4 19 Nov 16:01:34 16:06:25 67° 75° (ENE) 16:11:34 437.250
RS-15 19 Nov 16:11:57 16:15:02 11° 95° (E) 16:18:09 29.354- 29.394
ITAMSAT 1 19 Nov 16:21:15 16:23:18 12° 268° (W) 16:25:23 435.822/435.867
MOZHAYETS 4 19 Nov 16:25:24 16:27:39 14° 294° (WNW) 16:29:55
NUDT-PHONESAT 19 Nov 16:29:23 16:30:56 12° 69° (ENE) 16:32:31 437.300
CUBESAT XI-V 19 Nov 16:30:07 16:34:40 53° 286° (WNW) 16:39:14 437.345
LilacSat-2 19 Nov 16:30:09 16:33:03 22° 71° (ENE) 16:35:59 437.200
XW-2C 19 Nov 16:30:35 16:33:22 20° 71° (ENE) 16:36:10 145.795 - 145.815
NO-84 19 Nov 16:33:33 16:35:47 15° 329° (NNW) 16:38:06 435.350 FM
XW-2F 19 Nov 16:42:36 16:45:43 26° 72° (ENE) 16:48:52 145.980 - 146.000
KKS-1 19 Nov 16:51:38 16:56:01 53° 101° (E) 17:00:20 437.445
SRMSAT 19 Nov 17:02:38 17:04:09 11° 165° (SSE) 17:05:40 437.500
JUGNU 19 Nov 17:07:38 17:11:34 19° 181° (S) 17:15:29 437.505
YUBILEINY 19 Nov 17:08:22 17:17:13 78° 266° (W) 17:26:01 435.215
KAITUO 1B 19 Nov 17:13:06 17:16:40 52° 75° (ENE) 17:20:16 145.475/437.950
STARS 19 Nov 17:21:04 17:25:14 42° 99° (E) 17:29:23 437.465
XW-2D 19 Nov 17:23:19 17:27:01 70° 259° (W) 17:30:45 145.860 - 145.880
CUTE 1.7 + AOD 2 19 Nov 17:29:26 17:32:49 24° 71° (ENE) 17:36:13 437.475
CUTE-I 19 Nov 17:36:47 17:42:07 77° 257° (WSW) 17:47:31 437.470
XW-2B 19 Nov 17:38:14 17:41:48 45° 261° (W) 17:45:24 145.730 - 145.750
DOVE 4 19 Nov 17:43:03 17:44:34 11° 271° (W) 17:46:05 437.250
HO-68 19 Nov 17:51:29 17:58:33 64° 71° (ENE) 18:05:40 435.675
NUDT-PHONESAT 19 Nov 18:01:09 18:04:26 32° 262° (W) 18:07:44 437.300
SEEDS 19 Nov 18:02:53 18:06:40 35° 73° (ENE) 18:10:29 437.485
LilacSat-2 19 Nov 18:04:31 18:07:13 19° 265° (W) 18:09:57 437.200
XW-2C 19 Nov 18:04:37 18:07:24 20° 264° (W) 18:10:13 145.795 - 145.815
CUBEBUG 2 19 Nov 18:06:33 18:10:54 41° 74° (ENE) 18:15:09 437.445
RS-15 19 Nov 18:13:06 18:25:10 67° 112° (ESE) 18:37:17 29.354- 29.394
AAUSAT CUBESAT 2 19 Nov 18:15:46 18:18:49 21° 70° (ENE) 18:21:54 437.432
XW-2A 19 Nov 18:17:24 18:19:56 20° 72° (ENE) 18:22:27 145.665 - 145.685
XW-2F 19 Nov 18:17:38 18:19:49 15° 266° (W) 18:22:01 145.980 - 146.000
AO-73 19 Nov 18:19:47 18:21:46 13° 67° (ENE) 18:23:45 145.935
STRAND 1 19 Nov 18:20:59 18:24:34 19° 94° (E) 18:28:07 437.568
KKS-1 19 Nov 18:30:15 18:32:02 12° 295° (WNW) 18:33:50 437.445
Oscar 11 19 Nov 18:37:55 18:40:07 14° 67° (ENE) 18:42:20 .
SRMSAT 19 Nov 18:48:42 18:52:34 18° 174° (S) 18:56:27 437.500
JUGNU 19 Nov 18:56:55 18:59:50 14° 191° (SSW) 19:02:45 437.505
STARS 19 Nov 18:58:46 19:01:11 15° 294° (WNW) 19:03:33 437.465
ZACube-1 19 Nov 19:01:19 19:05:30 46° 75° (ENE) 19:09:37 437.345
CUTE 1.7 + AOD 2 19 Nov 19:05:18 19:08:32 22° 265° (W) 19:11:49 437.475
UWE-3 19 Nov 19:06:50 19:11:21 73° 258° (WSW) 19:15:45 435.000/436.395/437.385
YUBILEINY 19 Nov 19:09:56 19:12:26 11° 284° (WNW) 19:14:56 435.215
nSIGHT-1 19 Nov 19:19:38 19:20:04 10° 126° (SE) 19:20:29 .
FO-29 19 Nov 19:21:55 19:28:09 26° 92° (E) 19:34:02 435.910
SEEDS 19 Nov 19:40:07 19:42:26 14° 267° (W) 19:44:45 437.485
HO-68 19 Nov 19:41:36 19:46:40 20° 266° (W) 19:51:46 435.675
CUBEBUG 2 19 Nov 19:44:48 19:47:35 16° 266° (W) 19:50:21 437.445
XW-2A 19 Nov 19:50:34 19:52:32 15° 265° (W) 19:54:31 145.665 - 145.685
AAUSAT CUBESAT 2 19 Nov 19:50:41 19:54:05 25° 264° (W) 19:57:31 437.432
AO-73 19 Nov 19:53:25 19:57:35 45° 261° (W) 20:01:42 145.935
ISS 19 Nov 19:56:01 19:58:37 22° 130° (SE) 20:01:14 437.550
STRAND 1 19 Nov 19:59:05 20:03:51 41° 288° (WNW) 20:08:36 437.568
Oscar 11 19 Nov 20:11:47 20:15:51 42° 261° (W) 20:19:56 .
SO-50 19 Nov 20:21:53 20:23:13 11° 107° (ESE) 20:24:34 436.795
RS-15 19 Nov 20:27:21 20:38:26 37° 314° (NW) 20:49:31 29.354- 29.394
Max Valier Satellite 19 Nov 20:28:06 20:31:21 31° 74° (ENE) 20:34:37 145.860
EO-88 19 Nov 20:30:38 20:33:31 23° 72° (ENE) 20:36:25 145.990 - 145.960
DELFI C3 19 Nov 20:35:44 20:39:38 65° 77° (ENE) 20:43:34 145.870
SRMSAT 19 Nov 20:37:04 20:41:03 18° 184° (S) 20:45:01 437.500
UNISAT 6 19 Nov 20:39:17 20:41:36 14° 93° (E) 20:43:54 437.425
ZACube-1 19 Nov 20:40:15 20:41:57 12° 267° (W) 20:43:38 437.345
TIGRISAT 19 Nov 20:44:02 20:46:25 15° 93° (E) 20:48:47 435.000
nSIGHT-1 19 Nov 20:52:45 20:55:54 55° 319° (NW) 20:59:04 .
FO-29 19 Nov 21:05:49 21:13:28 58° 289° (WNW) 21:20:39 435.910
NO-84 19 Nov 21:30:52 21:33:26 15° 32° (NNE) 21:35:59 435.350 FM
ISS 19 Nov 21:32:07 21:34:59 28° 324° (NW) 21:37:52 437.550
SO-50 19 Nov 21:58:43 22:03:07 58° 302° (WNW) 22:07:33 436.795
Max Valier Satellite 19 Nov 22:03:43 22:05:14 12° 267° (W) 22:06:44 145.860
EO-88 19 Nov 22:04:44 22:07:05 16° 265° (W) 22:09:27 145.990 - 145.960
PRISM 19 Nov 22:06:14 22:10:18 50° 100° (E) 22:14:19 437.425
UNISAT 6 19 Nov 22:14:29 22:18:26 37° 287° (WNW) 22:22:21 437.425
TIGRISAT 19 Nov 22:19:18 22:23:12 36° 288° (WNW) 22:27:05 435.000
O/OREOS (USA 219) 19 Nov 22:25:08 22:27:55 16° 59° (ENE) 22:30:41 437.305
SRMSAT 19 Nov 22:27:13 22:29:29 12° 194° (SSW) 22:31:45 437.500
LO-87 19 Nov 22:32:32 22:36:08 70° 259° (W) 22:39:45 145.935 - 145.965
ESTCUBE 1 19 Nov 22:45:18 22:49:46 80° 259° (W) 22:54:15 437.505/2401.250
SPROUT 19 Nov 22:46:20 22:49:37 22° 70° (ENE) 22:52:54 437.525
RS-15 19 Nov 22:50:25 22:56:09 14° 346° (NNW) 23:01:51 29.354- 29.394
QB50P2 19 Nov 22:59:19 23:02:35 22° 96° (E) 23:05:49 145.880/145.840
NO-84 19 Nov 23:07:01 23:11:18 86° 229° (SW) 23:15:28 435.350 FM
VELOX 1 19 Nov 23:13:01 23:16:48 28° 71° (ENE) 23:20:37 145.980
AIST 2D 19 Nov 23:13:19 23:16:49 69° 284° (WNW) 23:20:20 435.315
PCSat 19 Nov 23:22:41 23:27:26 32° 109° (ESE) 23:32:14 145.827
PRISM 19 Nov 23:43:48 23:45:03 11° 294° (WNW) 23:46:18 437.425
DUCHIFAT 1 19 Nov 23:50:38 23:54:45 63° 100° (E) 23:58:52 145.980
EO-79 19 Nov 23:56:05 00:00:17 81° 283° (WNW) 00:04:27 145.935-145.965
NANOSAT C BR1 20 Nov 00:00:19 00:04:31 83° 283° (WNW) 00:08:40 145.865
